Probability
26 29 35 35 35 42 52 55 61 65 68 61 58 58 58 55 48 48 45 58 55 52 48 45 58 48 39 35 32 45 42 39 39 35 26 32 23 19 23 32 26 23 19
29 35 35 35 39 48 52 61 65 68 68 74 74 71 65 58 48 48 48 58 58 48 39 52 42 39 42 42 39 42 29 29 26 23 16 26 23 26 3 32 32 26 26
26 35 35 42 48 52 52 52 71 71 71 74 74 71 77 71 58 52 55 58 52 52 52 52 42 42 32 39 45 48 39 26 23 26 26 26 23 13 19 26 29 29 32
29 39 39 48 45 48 48 58 71 71 71 74 68 68 65 65 68 65 61 52 52 48 45 48 52 45 42 45 35 35 35 42 35 35 39 39 23 23 19 19 16 26 26
32 42 42 48 48 48 52 52 65 71 71 74 77 74 65 58 61 65 65 55 52 48 42 42 42 42 42 42 42 39 39 32 39 29 29 32 29 10 19 23 26 13 13
35 45 42 45 48 48 52 58 65 68 65 71 77 74 71 65 65 65 55 52 45 42 42 39 42 42 42 42 39 39 39 39 42 35 23 26 16 19 16 13 19 19 10
35 39 39 45 48 48 48 52 58 65 68 65 65 65 68 65 61 55 55 48 39 35 42 32 39 39 42 35 35 39 32 39 39 39 29 23 26 19 19 16 13 10 16
39 29 35 45 52 48 48 52 55 61 61 61 65 61 65 55 55 58 52 48 39 35 39 35 35 35 32 32 35 35 32 35 35 29 35 32 26 19 19 23 23 19 16
39 32 32 42 48 45 45 48 52 55 55 55 58 58 55 55 55 55 52 45 45 35 39 32 32 35 32 32 39 32 39 39 35 26 32 32 29 26 23 19 26 26 23
32 29 26 32 35 42 42 45 52 52 52 55 58 55 61 52 52 48 48 45 39 39 35 32 29 32 32 32 32 29 35 39 35 39 32 32 32 29 26 26 19 23 23
23 29 32 32 32 45 45 48 52 52 55 55 55 48 48 52 52 52 52 42 45 45 35 32 35 29 26 29 32 23 29 35 39 32 32 39 39 26 23 19 16 23 19
26 29 32 35 35 35 42 52 48 52 52 52 52 55 55 58 58 52 48 48 42 42 35 32 32 32 32 35 29 29 26 29 32 35 32 32 32 32 26 23 19 26 29
26 29 29 35 32 35 42 42 45 48 48 55 55 48 52 55 58 55 52 45 45 39 35 32 32 32 32 32 29 32 32 32 32 32 32 29 35 32 32 23 26 23 19
26 32 29 35 39 35 39 39 42 48 48 52 55 52 45 48 52 52 45 42 39 42 35 29 32 32 32 29 26 26 26 29 32 35 35 29 29 29 26 23 23 26 29
35 32 35 39 42 35 39 35 39 39 45 52 48 45 52 45 42 42 45 39 39 32 35 35 32 32 35 23 26 26 26 32 35 35 32 29 29 26 16 13 19 19 16
45 32 35 35 35 39 39 39 39 39 45 45 42 42 48 42 45 48 48 45 35 32 26 35 32 32 23 10 10 19 26 32 32 35 32 19 23 19 10 6 3 6 13
39 42 39 35 35 39 35 35 39 39 39 42 42 42 45 39 39 45 45 42 39 35 35 32 35 26 19 6 6 3 16 26 29 29 32 19 6 13 19 6 3 3 3
35 35 32 29 26 23 26 32 35 39 39 32 32 39 42 39 39 39 35 35 35 32 35 39 39 35 19 10 3 3 10 23 26 26 26 16 16 6 16 10 6 6 10
35 29 26 29 29 29 29 32 29 32 32 32 32 32 39 39 35 32 35 35 32 32 35 35 35 35 26 10 3 0 23 23 23 19 19 16 16 10 6 10 10 6 6
32 26 26 26 29 26 26 29 29 29 32 29 32 32 35 35 32 32 32 29 29 29 32 29 35 35 29 10 0 0 16 19 19 19 13 10 10 10 6 10 10 6 6
26 23 29 29 23 23 23 26 29 29 29 29 32 32 32 35 39 32 29 29 29 29 29 29 32 32 23 6 0 0 13 10 13 16 13 10 6 3 3 3 13 6 6
16 19 19 19 19 23 26 26 29 29 29 32 32 32 32 32 32 32 32 32 29 26 26 29 26 26 23 10 0 0 0 3 10 13 10 10 6 0 0 3 6 6 3
16 16 19 19 23 19 29 29 29 32 32 32 35 35 32 35 32 32 29 29 32 29 26 26 26 16 23 10 3 0 0 0 3 6 6 6 0 0 0 0 0 3 6
13 13 19 23 26 19 19 23 29 32 32 32 32 32 35 35 32 32 32 29 26 26 26 23 23 16 16 6 6 3 3 0 0 6 3 3 0 3 3 3 3 6 6
13 13 16 16 19 19 23 16 16 29 32 32 32 32 26 26 29 29 32 23 26 23 19 23 16 13 6 6 6 6 6 6 6 6 6 3 3 3 3 3 3 3 6
6 16 16 19 19 19 19 19 19 23 26 26 23 16 23 23 19 23 23 13 13 10 6 10 10 10 6 6 6 6 6 6 6 6 6 6 6 3 3 3 3 3 6
Height
5916 5915 5913 5912 5912 5911 5910 5909 5909 5908 5907 5906 5905 5903 5902 5901 5899 5898 5897 5896 5895 5893 5892 5891 5889 5888 5886 5885 5884 5882 5881 5880 5880 5879 5878 5878 5877 5876 5875 5875 5875 5874 5874
5916 5914 5913 5912 5912 5911 5910 5909 5908 5907 5906 5905 5904 5903 5901 5900 5898 5897 5895 5894 5893 5892 5890 5889 5887 5886 5884 5883 5882 5881 5879 5878 5877 5876 5876 5875 5874 5873 5872 5872 5871 5870 5870
5915 5914 5913 5912 5911 5910 5909 5908 5907 5906 5905 5904 5902 5901 5900 5898 5897 5895 5893 5892 5891 5889 5888 5887 5886 5884 5883 5881 5880 5878 5877 5876 5875 5874 5873 5872 5871 5870 5869 5868 5867 5867 5867
5913 5912 5912 5911 5910 5909 5908 5906 5905 5904 5903 5902 5901 5899 5898 5896 5894 5892 5891 5889 5888 5887 5886 5884 5883 5882 5880 5878 5877 5876 5874 5873 5872 5871 5869 5868 5867 5866 5865 5864 5863 5863 5863
5912 5911 5910 5909 5908 5907 5906 5905 5904 5902 5901 5900 5899 5897 5895 5893 5892 5890 5888 5886 5885 5884 5883 5881 5880 5878 5877 5875 5874 5872 5871 5869 5868 5867 5865 5864 5863 5862 5861 5860 5859 5858 5858
5910 5909 5908 5907 5906 5905 5904 5903 5902 5900 5899 5898 5896 5895 5893 5891 5889 5887 5884 5883 5881 5880 5879 5878 5876 5875 5873 5871 5870 5868 5867 5865 5864 5862 5861 5860 5858 5857 5856 5855 5854 5854 5853
5907 5906 5906 5905 5904 5903 5902 5900 5899 5898 5897 5896 5894 5892 5890 5888 5886 5884 5882 5880 5878 5877 5875 5874 5872 5871 5869 5867 5866 5864 5863 5861 5859 5858 5856 5855 5854 5852 5851 5850 5850 5849 5848
5904 5903 5903 5902 5901 5900 5899 5898 5897 5895 5894 5892 5891 5889 5887 5885 5882 5880 5878 5877 5875 5873 5872 5870 5868 5867 5865 5863 5862 5860 5858 5857 5855 5853 5852 5850 5849 5847 5846 5845 5844 5843 5843
5900 5900 5899 5898 5897 5896 5895 5894 5893 5892 5891 5889 5887 5885 5883 5881 5879 5877 5875 5873 5871 5869 5868 5866 5864 5863 5861 5859 5857 5855 5854 5852 5850 5848 5847 5845 5843 5842 5840 5839 5838 5838 5837
5897 5896 5895 5894 5893 5893 5892 5891 5889 5888 5886 5885 5883 5881 5879 5877 5875 5872 5870 5869 5867 5865 5864 5862 5860 5858 5856 5854 5852 5850 5849 5847 5845 5843 5841 5839 5837 5836 5834 5833 5832 5831 5830
5892 5892 5891 5890 5889 5888 5887 5886 5885 5884 5882 5880 5878 5876 5874 5872 5870 5868 5866 5864 5863 5861 5859 5857 5855 5853 5851 5849 5847 5845 5843 5841 5839 5837 5836 5833 5832 5830 5828 5827 5825 5824 5823
5887 5887 5886 5886 5885 5884 5883 5881 5880 5879 5877 5875 5872 5871 5869 5867 5865 5863 5861 5860 5858 5856 5854 5852 5850 5848 5846 5844 5842 5839 5837 5836 5834 5832 5830 5828 5826 5824 5822 5820 5818 5817 5815
5882 5882 5881 5881 5880 5879 5878 5876 5875 5874 5872 5870 5867 5866 5863 5861 5860 5858 5856 5855 5853 5851 5849 5847 5845 5842 5840 5838 5836 5833 5831 5830 5828 5825 5824 5822 5820 5817 5815 5813 5811 5809 5808
5877 5877 5876 5875 5875 5874 5873 5871 5869 5868 5866 5864 5862 5860 5858 5856 5854 5853 5851 5849 5847 5845 5843 5841 5839 5836 5834 5832 5830 5828 5826 5823 5821 5819 5817 5815 5813 5811 5808 5806 5804 5802 5800
5871 5871 5870 5870 5869 5868 5867 5865 5864 5862 5860 5858 5856 5854 5852 5850 5848 5847 5846 5844 5842 5839 5837 5835 5832 5830 5828 5826 5823 5821 5819 5817 5815 5813 5811 5809 5806 5804 5801 5799 5797 5794 5793
5866 5865 5865 5864 5863 5862 5861 5859 5858 5856 5854 5852 5850 5849 5847 5845 5843 5841 5839 5837 5835 5833 5830 5828 5826 5823 5821 5819 5817 5815 5813 5811 5809 5806 5804 5802 5799 5797 5794 5792 5789 5787 5785
5860 5859 5859 5858 5857 5856 5854 5853 5851 5849 5847 5846 5844 5842 5841 5839 5837 5835 5833 5831 5828 5826 5824 5821 5818 5816 5814 5812 5810 5807 5806 5804 5802 5800 5797 5795 5792 5790 5787 5785 5783 5781 5778
5853 5853 5852 5851 5850 5849 5848 5846 5844 5843 5841 5839 5837 5836 5834 5832 5830 5828 5826 5823 5821 5818 5816 5814 5811 5809 5807 5805 5802 5800 5798 5797 5795 5793 5790 5788 5785 5783 5780 5778 5776 5774 5772
5846 5846 5845 5844 5843 5842 5840 5839 5837 5836 5834 5832 5831 5829 5827 5825 5823 5821 5818 5816 5813 5811 5808 5806 5804 5801 5799 5797 5795 5793 5791 5789 5788 5785 5783 5780 5778 5776 5773 5771 5769 5766 5764
5839 5838 5837 5836 5835 5834 5833 5832 5830 5829 5827 5825 5824 5822 5820 5818 5815 5813 5810 5808 5805 5803 5800 5798 5796 5794 5792 5790 5787 5786 5784 5782 5780 5778 5775 5773 5771 5768 5766 5763 5761 5759 5757
5831 5830 5830 5829 5828 5826 5825 5824 5822 5821 5820 5818 5816 5814 5812 5810 5807 5805 5802 5800 5797 5795 5793 5791 5789 5786 5784 5782 5780 5778 5776 5774 5772 5770 5768 5766 5763 5761 5758 5756 5754 5752 5749
5822 5821 5821 5821 5820 5818 5817 5816 5815 5813 5812 5810 5808 5806 5804 5801 5799 5797 5794 5791 5789 5787 5785 5783 5781 5779 5777 5775 5773 5771 5769 5766 5764 5762 5760 5758 5755 5753 5751 5748 5746 5744 5741
5813 5813 5812 5811 5811 5810 5809 5808 5806 5804 5803 5801 5799 5797 5795 5793 5790 5788 5785 5783 5780 5779 5777 5775 5773 5771 5769 5767 5765 5763 5761 5758 5756 5754 5752 5750 5747 5745 5743 5740 5738 5736 5734
5804 5803 5803 5802 5801 5800 5799 5798 5797 5795 5793 5791 5790 5788 5786 5784 5781 5779 5777 5774 5772 5770 5768 5766 5764 5762 5761 5759 5757 5754 5752 5750 5748 5746 5743 5741 5739 5737 5735 5732 5730 5728 5726
5795 5795 5794 5792 5791 5790 5789 5788 5786 5785 5783 5781 5780 5778 5776 5774 5772 5770 5767 5765 5764 5762 5760 5758 5756 5754 5752 5751 5748 5746 5744 5742 5740 5737 5735 5733 5731 5729 5727 5725 5723 5721 5719
5786 5785 5784 5783 5782 5780 5779 5778 5776 5774 5773 5771 5769 5767 5766 5764 5762 5760 5758 5756 5754 5753 5751 5749 5747 5745 5743 5741 5739 5737 5735 5733 5731 5728 5727 5725 5723 5722 5719 5718 5716 5713 5711
Wind_Speed
6 5 5 3 3 4 4 4 4 4 4 5 5 6 6 7 7 6 7 7 7 7 8 8 8 8 9 9 9 10 10 10 10 11 11 12 13 13 14 14 15 16 16
6 5 4 4 4 4 5 5 4 5 5 6 7 7 8 8 8 8 8 9 9 9 9 9 9 9 10 10 10 10 11 11 11 11 12 12 13 14 15 15 15 14 16
6 6 6 6 6 6 6 6 6 6 7 8 8 9 9 10 10 10 10 10 10 10 10 10 11 11 11 11 11 11 11 12 12 12 13 14 14 15 14 14 14 14 14
6 6 7 8 8 7 7 8 7 8 9 9 9 10 11 11 11 12 12 11 11 11 12 12 12 12 12 12 12 12 13 13 13 14 14 15 16 16 15 15 15 16 16
8 8 8 9 9 9 9 9 9 9 10 10 10 11 12 12 13 13 13 13 12 12 12 13 13 14 15 14 14 14 14 14 14 15 15 15 16 16 17 16 16 16 16
9 9 9 10 10 11 10 10 10 11 11 11 11 12 12 13 14 13 14 14 14 13 13 14 14 15 15 15 15 15 14 15 15 15 16 16 17 17 17 18 17 17 18
11 11 11 11 11 12 11 12 12 12 12 12 13 13 14 14 15 15 15 15 15 15 14 15 15 16 16 16 16 16 16 16 16 16 17 17 18 18 19 19 19 19 19
11 11 12 12 12 13 13 13 13 14 14 14 14 14 14 15 16 16 16 17 16 15 15 16 16 17 17 17 17 17 17 17 18 18 18 18 19 20 20 21 21 20 20
13 13 13 14 14 13 14 15 15 15 15 15 16 15 15 16 17 18 18 18 17 16 16 17 17 18 18 19 19 18 18 18 18 19 19 19 20 21 21 21 22 22 22
15 15 16 15 15 15 15 15 15 15 16 17 17 17 17 17 18 18 18 18 17 16 17 18 19 19 19 20 20 19 20 20 20 20 20 20 21 21 22 23 23 24 24
16 16 16 16 16 17 17 17 17 17 18 19 19 19 19 19 18 18 18 18 18 19 19 20 20 20 20 20 20 21 21 21 21 21 21 21 21 21 22 23 24 25 25
17 17 17 17 18 18 18 18 19 19 20 20 20 19 19 20 19 19 18 18 19 19 20 21 20 20 21 21 22 22 21 21 21 22 22 22 22 22 23 24 25 25 26
18 18 18 18 18 19 19 20 20 20 21 21 21 22 22 21 20 20 20 20 21 21 22 22 22 21 22 22 23 22 21 21 21 21 22 23 23 24 24 24 25 25 26
20 20 19 19 19 20 20 21 21 21 22 23 23 24 23 21 20 20 21 21 22 23 23 23 22 23 23 23 23 23 23 22 22 22 23 24 24 24 25 25 25 26 26
20 20 20 21 21 21 22 22 23 23 23 23 24 24 23 21 21 22 22 23 23 24 25 24 25 24 24 24 24 24 24 24 23 24 24 25 25 25 25 25 25 25 25
20 21 22 22 23 23 23 23 23 23 23 24 24 24 23 23 23 23 23 24 25 26 26 25 25 25 25 25 26 25 24 24 24 24 25 25 26 26 26 25 25 25 25
21 21 23 24 24 24 24 24 25 25 24 24 24 24 23 23 24 25 25 26 27 27 27 27 26 26 26 27 26 26 26 25 24 25 25 26 26 25 24 24 24 25 25
22 22 23 24 25 26 25 25 25 25 25 24 24 24 24 24 26 27 27 27 28 28 28 27 26 26 26 27 27 27 26 25 25 25 26 26 26 25 24 24 25 24 25
23 24 24 25 25 25 25 25 26 25 25 24 25 25 25 26 27 28 27 28 28 28 28 28 27 26 26 27 27 28 27 27 26 26 25 25 26 26 26 26 26 25 24
25 26 26 26 26 26 27 26 25 26 26 26 27 27 27 27 28 28 28 28 29 29 29 29 28 28 27 27 28 28 28 27 27 26 26 26 26 26 27 27 26 26 25
28 28 27 27 27 27 28 28 28 27 28 28 29 29 29 29 30 30 29 29 29 29 29 29 30 29 28 28 28 28 28 27 27 27 27 27 27 26 27 27 27 26 26
30 30 30 29 29 29 29 29 29 29 29 30 30 31 32 31 31 31 31 30 29 29 29 29 30 29 29 29 29 29 29 29 28 28 28 28 27 27 28 27 27 27 27
31 31 30 30 30 30 30 30 30 31 31 31 32 33 32 31 32 32 32 31 30 30 29 30 30 29 29 29 29 29 29 29 29 29 29 29 28 27 27 27 27 27 27
30 30 30 31 31 31 31 31 31 32 32 33 33 33 32 32 32 32 32 31 30 31 31 31 31 30 29 28 29 29 29 28 28 28 28 27 28 28 28 27 27 27 27
30 30 30 31 31 31 32 33 33 34 34 34 34 33 33 33 33 33 33 33 32 32 32 32 31 31 30 30 30 30 30 30 30 29 28 27 26 27 27 27 27 28 27
31 31 31 31 32 33 34 34 34 35 35 35 35 34 35 34 34 34 34 33 33 33 33 32 32 32 31 31 31 31 30 30 30 29 28 27 25 26 26 26 27 27 26
Wind_Direction
310 312 316 305 308 311 316 322 325 322 322 328 328 327 325 323 319 313 310 310 311 312 311 314 315 314 309 303 300 295 292 288 290 291 285 279 276 275 279 273 267 267 266
305 303 304 306 307 309 309 314 310 310 310 312 314 313 316 315 313 312 306 303 303 306 307 305 305 308 307 304 304 300 293 291 291 292 292 290 284 281 279 278 275 272 271
299 296 292 297 302 303 303 307 300 301 302 302 305 309 310 312 307 303 302 299 299 299 301 301 300 303 305 302 300 299 296 294 290 290 289 288 288 288 282 280 278 274 272
294 292 289 293 296 297 298 301 300 299 300 300 302 304 306 309 307 302 298 295 295 297 297 299 299 301 305 302 298 295 296 296 293 291 290 288 286 285 283 279 275 273 271
288 288 290 290 292 294 297 297 296 298 301 302 301 300 303 308 307 303 298 294 291 296 300 300 301 299 299 299 297 296 296 296 294 291 290 290 288 283 282 279 275 275 273
282 287 291 290 292 292 292 294 294 297 300 301 301 302 303 304 306 303 298 298 294 299 301 301 300 301 302 300 297 296 294 292 292 291 290 290 290 286 282 278 277 275 274
281 285 287 287 289 292 289 290 290 293 295 296 297 298 300 300 300 301 300 299 298 299 299 301 301 301 301 301 299 297 293 292 292 291 290 290 289 287 284 280 278 275 274
281 283 287 288 287 287 286 285 287 289 291 292 292 292 295 296 297 298 302 301 300 297 299 301 300 300 300 300 300 299 296 294 294 293 291 288 288 286 285 281 279 277 276
279 284 289 287 284 285 285 285 284 286 288 290 291 292 293 295 296 296 297 298 297 297 299 300 300 300 300 300 300 300 298 296 295 293 291 288 287 285 285 282 279 278 277
277 279 283 282 281 282 285 285 284 284 287 290 291 291 291 293 294 295 295 295 299 299 300 299 300 301 301 300 299 300 298 295 294 294 292 291 290 287 285 283 280 278 277
275 275 278 278 278 279 281 284 283 283 285 287 287 287 288 291 291 293 296 295 297 299 297 297 299 301 301 300 298 299 299 296 294 292 291 291 291 289 288 286 285 281 276
274 273 274 276 279 279 281 283 284 283 283 284 285 288 290 289 288 290 293 293 298 300 298 297 298 297 299 299 298 296 297 296 294 293 292 292 292 291 290 289 286 283 279
273 273 274 276 278 280 281 283 283 282 283 284 286 290 290 288 287 288 290 292 295 297 298 297 297 296 296 297 297 297 296 293 292 292 292 293 293 292 291 289 286 283 280
274 274 275 276 278 279 280 281 281 281 283 285 287 288 289 286 286 290 293 293 295 295 296 294 294 293 293 294 294 293 293 291 290 290 290 291 292 293 292 290 287 285 283
274 273 274 276 278 280 281 284 284 283 284 286 288 290 290 287 288 292 294 295 296 296 294 292 291 290 291 292 292 291 291 292 291 291 291 291 291 292 292 291 289 286 285
272 272 273 276 279 280 282 284 283 283 285 286 287 291 291 288 288 293 294 295 295 295 292 291 289 288 290 290 288 288 289 291 292 292 293 292 291 291 292 291 290 288 286
272 271 271 274 278 280 282 283 282 282 283 285 287 289 291 288 289 291 292 293 293 293 292 290 290 289 289 288 286 286 286 286 289 291 293 294 293 292 291 290 290 289 288
269 270 272 273 275 278 280 280 281 283 283 284 286 287 288 288 289 290 290 291 291 292 292 292 290 289 289 288 287 287 286 286 289 291 292 292 292 293 291 290 290 289 289
270 271 272 273 275 277 279 281 282 282 283 283 285 285 285 287 288 288 289 291 291 291 292 292 293 292 290 289 287 287 287 286 286 289 291 292 293 292 291 289 289 290 289
270 270 271 273 274 275 278 279 281 282 283 283 284 284 284 286 287 288 289 291 291 290 289 289 290 291 290 289 289 289 288 286 287 289 290 292 293 294 291 291 291 291 290
270 271 271 271 272 273 275 277 278 280 281 282 283 283 283 285 287 290 291 290 291 290 290 291 291 292 292 290 290 289 290 288 288 289 290 290 289 292 292 292 292 291 291
269 270 271 272 273 273 274 275 276 279 280 280 281 282 282 284 288 289 290 290 290 291 291 292 292 291 291 290 290 289 288 289 289 290 290 291 291 291 291 291 292 292 291
272 272 272 272 273 273 273 275 276 277 278 279 280 282 283 285 287 287 288 289 291 292 292 293 292 292 290 290 289 290 290 290 290 291 291 291 291 291 291 291 292 293 291
273 273 273 274 273 274 274 274 275 276 277 279 281 282 284 286 286 286 287 288 289 291 291 292 291 291 291 290 290 289 289 289 290 291 291 290 289 288 289 289 292 293 292
272 272 274 275 274 274 273 273 275 276 277 279 280 282 283 285 286 287 286 287 288 289 290 290 290 290 290 290 290 289 288 289 289 290 290 290 291 291 292 290 290 291 290
272 273 275 277 276 275 276 276 276 277 278 279 280 281 282 283 284 285 284 285 286 287 288 288 289 288 288 288 289 289 288 288 289 288 289 288 289 292 293 292 291 292 291